{"data":{"norad_id":60907,"intl_designator":"2024-154E","name":"STARLINK-11226 [DTC]","alt_names":[],"object_type":"PAYLOAD","status":"ACTIVE","operator":null,"country":"US","launch_date":"2024-08-31","launch_site_code":"AFETR","launch_vehicle":null,"mission":null,"orbit_class":"UNKNOWN","rcs_meters":null,"size_class":null,"mass_kg":null,"dimensions":null,"purposes":["comms"],"wikipedia_slug":null,"has_3d_model":false,"image_url":null,"decayed_at":null,"tle_current":{"epoch":"2026-09-21T16:13:34.934592Z","epoch_age_seconds":86847,"freshness":"FRESH","line1":"1 60907U 24154E   26264.67609878  .00000469  00000+0  87153-5 0  9996","line2":"2 60907  53.1590 245.3155 0000101 307.4797  52.6211 15.69715386119291","mean_motion":15.69715386,"eccentricity":1.01e-5,"inclination_deg":53.159,"raan_deg":245.3155,"arg_perigee_deg":307.4797,"mean_anomaly_deg":52.6211,"bstar":8.7153e-6,"rev_number":11929,"period_min":91.736375450167,"perigee_km":359.64328552529,"apogee_km":359.77939006171,"semimajor_km":6737.8483377935,"source":"CELESTRAK","updated_at":"2026-09-22T09:00:49.283179Z"}}}